Waarnemingen

Advertentie
Mijn weer
Ouessant, Frankrijk (7100): temperatuur & dauwpunt: 15.05.2019 00:00:00 - 21.05.2019 00:00:00 (CEST)Ouessant, Frankrijk (7100): windsnelheid & windstoten: 15.05.2019 00:00:00 - 21.05.2019 00:00:00 (CEST)Ouessant, Frankrijk (7100): windrichting: 15.05.2019 00:00:00 - 21.05.2019 00:00:00 (CEST)Ouessant, Frankrijk (7100): luchtdruk: 15.05.2019 00:00:00 - 21.05.2019 00:00:00 (CEST)Ouessant, Frankrijk (7100): zicht: 15.05.2019 00:00:00 - 21.05.2019 00:00:00 (CEST)Ouessant, Frankrijk (7100): neerslag: 15.05.2019 00:00:00 - 21.05.2019 00:00:00 (CEST)
Datum & Tijd tt [°C] td [°C] ff [km/u] ff [kn] fx [km/u] fx [kn] dd ppp [hPa] vv [km] rr [mm]
21.05.2019 00:00:00 11,1 10,8 19 10 25 14 NW 1017,8 - 0,0
20.05.2019 23:00:00 11,0 10,4 17 9 23 12 NW 1017,7 18 0,0
20.05.2019 22:00:00 11,4 10,3 18 10 27 15 NNW 1017,1 - 0,0
20.05.2019 21:00:00 12,3 10,5 17 9 25 13 NW 1016,8 - 0,0
20.05.2019 20:00:00 13,6 10,6 18 10 26 14 NNW 1016,6 20 0,0
20.05.2019 19:00:00 14,3 10,9 19 10 24 13 NNW 1016,3 - 0,0
20.05.2019 18:00:00 14,0 10,6 18 10 28 15 NNW 1016,2 - 0,0
20.05.2019 17:00:00 14,6 11,0 21 11 29 16 NNW 1016,2 20 0,0
20.05.2019 16:00:00 14,8 10,8 20 11 26 14 NNW 1016,1 - 0,0
20.05.2019 15:00:00 14,6 11,2 18 10 26 14 NNW 1015,9 - 0,0
20.05.2019 14:00:00 14,6 11,2 18 10 30 16 NNW 1015,7 20 0,0
20.05.2019 13:00:00 14,5 10,9 17 9 27 15 NNW 1015,5 - 0,0
20.05.2019 12:00:00 14,1 10,9 16 9 24 13 NNW 1015,4 - 0,0
20.05.2019 11:00:00 13,8 10,8 19 10 27 15 NNW 1015,3 18 0,0
20.05.2019 10:00:00 12,9 10,3 21 12 29 16 NNW 1015,0 - 0,0
20.05.2019 09:00:00 12,3 10,2 21 12 29 16 NNW 1014,6 - 0,0
20.05.2019 08:00:00 11,3 10,0 21 11 29 16 NNW 1014,2 18 0,0
20.05.2019 07:00:00 10,8 9,7 23 12 33 18 NNW 1013,7 - 0,0
20.05.2019 06:00:00 11,0 9,6 24 13 33 18 NNW 1013,7 - 0,0
20.05.2019 05:00:00 11,1 9,8 23 12 33 18 NNW 1013,6 - 0,0
20.05.2019 04:00:00 10,9 9,8 25 14 36 19 NNW 1013,7 - 0,0
20.05.2019 03:00:00 11,0 9,7 24 13 34 18 NNW 1013,9 - 0,0
20.05.2019 02:00:00 10,8 9,7 23 12 35 19 NNW 1014,0 15 0,0
20.05.2019 01:00:00 10,9 9,8 23 13 35 19 NNW 1014,0 - 0,0
20.05.2019 00:00:00 11,0 10,1 24 13 36 20 NNW 1014,1 - 0,0
19.05.2019 23:00:00 11,1 10,2 25 14 39 21 NNW 1013,9 12 0,0
19.05.2019 22:00:00 11,3 10,4 29 16 38 20 NNW 1013,4 - 0,0
19.05.2019 21:00:00 12,1 10,5 25 14 36 19 NNW 1013,1 - 0,0
19.05.2019 20:00:00 13,0 10,7 25 13 38 20 NNW 1012,8 12 0,0
19.05.2019 19:00:00 13,0 10,7 29 15 39 21 NNW 1012,6 - 0,0
19.05.2019 18:00:00 13,6 11,3 27 14 38 20 NNW 1012,7 - 0,0
19.05.2019 17:00:00 13,8 11,3 25 13 35 19 NNW 1012,8 12 0,0
19.05.2019 16:00:00 14,8 12,5 20 11 30 16 NNW 1012,6 - 0,0
19.05.2019 15:00:00 15,2 12,7 20 11 27 15 NNW 1012,5 - 0,0
19.05.2019 14:00:00 13,6 12,0 21 11 31 17 NNW 1012,4 6 0,0
19.05.2019 13:00:00 14,3 12,2 21 11 29 16 NNW 1012,1 - 0,0
19.05.2019 12:00:00 14,5 12,5 17 9 29 16 NNW 1011,7 - 0,0
19.05.2019 11:00:00 13,3 11,5 19 10 27 15 NNW 1011,5 10 0,0
19.05.2019 10:00:00 12,5 10,2 22 12 32 17 NNW 1011,1 - 0,0
19.05.2019 09:00:00 11,9 9,6 24 13 34 19 NNW 1010,8 - 0,0
19.05.2019 08:00:00 11,6 10,0 23 12 35 19 NNW 1010,7 - 0,0
19.05.2019 07:00:00 11,3 10,0 22 12 41 22 NNW 1010,4 - 0,0
19.05.2019 06:00:00 11,4 9,5 30 16 41 22 NNW 1010,3 - 0,0
19.05.2019 05:00:00 11,3 10,5 26 14 36 19 NNW 1010,2 15 0,0
19.05.2019 04:00:00 11,1 10,3 26 14 35 19 NNW 1010,2 - 0,0
19.05.2019 03:00:00 11,2 10,7 26 14 32 17 NNW 1010,1 - 0,0
19.05.2019 02:00:00 11,4 10,9 23 12 34 19 NNW 1010,3 15 0,0
19.05.2019 01:00:00 11,4 10,9 25 14 37 20 NNW 1010,0 - 0,0
19.05.2019 00:00:00 11,4 11,1 24 13 34 18 NNW 1010,0 - 0,0
18.05.2019 23:00:00 11,6 11,1 27 14 37 20 NW 1009,9 6 0,0
18.05.2019 22:00:00 11,6 10,7 25 14 37 20 NW 1009,7 - 0,0
18.05.2019 21:00:00 11,9 10,3 24 13 34 18 NNW 1009,4 - 0,0
18.05.2019 20:00:00 12,3 10,2 26 14 37 20 NNW 1009,0 - 0,0
18.05.2019 19:00:00 12,9 10,1 26 14 37 20 NNW 1008,7 - 0,0
18.05.2019 18:00:00 13,7 11,7 22 12 35 19 NNW 1008,5 - 0,0
18.05.2019 17:00:00 14,1 11,4 23 12 32 17 NNW 1008,3 10 0,0
18.05.2019 16:00:00 14,8 11,9 24 13 34 18 NNW 1008,1 - 0,0
18.05.2019 15:00:00 14,7 12,0 25 14 34 18 NNW 1008,0 - 0,0
18.05.2019 14:00:00 14,5 12,0 24 13 36 20 NNW 1007,9 - 0,0
18.05.2019 13:00:00 13,2 11,4 24 13 32 17 NNW 1007,9 - 0,0
18.05.2019 12:00:00 13,6 11,8 23 13 34 18 NNW 1007,7 - 0,0
18.05.2019 11:00:00 12,2 11,4 20 11 29 16 N 1007,4 6 0,0
18.05.2019 10:00:00 12,3 11,4 20 11 28 15 NNW 1007,2 - 0,0
18.05.2019 09:00:00 11,9 11,1 19 10 28 15 NNW 1006,6 - 0,0
18.05.2019 08:00:00 11,4 10,8 17 9 26 14 N 1006,5 10 0,0
18.05.2019 07:00:00 10,9 10,6 15 8 23 12 NNW 1006,3 - 0,0
18.05.2019 06:00:00 10,5 10,2 14 7 24 13 NNW 1006,4 - 0,0
18.05.2019 05:00:00 10,5 9,9 18 10 23 13 N 1006,6 18 0,0
18.05.2019 04:00:00 10,4 9,3 12 7 22 12 N 1007,0 - 0,0
18.05.2019 03:00:00 10,6 9,0 15 8 30 16 N 1007,4 - 0,0
18.05.2019 02:00:00 11,2 8,2 21 11 33 18 N 1007,5 18 0,0
18.05.2019 01:00:00 11,3 10,7 26 14 32 17 NNW 1007,6 - 0,0
18.05.2019 00:00:00 11,0 9,9 24 13 35 19 NNW 1007,9 - 0,0
17.05.2019 23:00:00 10,8 9,1 25 14 35 19 NNW 1008,1 18 0,0
17.05.2019 22:00:00 10,8 8,4 24 13 34 19 NNW 1008,2 - 0,0
17.05.2019 21:00:00 11,2 8,1 29 16 39 21 NNW 1008,0 - 0,0
17.05.2019 20:00:00 11,8 9,0 13 7 18 10 NNW 1008,1 15 0,0
17.05.2019 19:00:00 12,3 8,6 9 5 14 8 N 1008,3 - 0,0
17.05.2019 18:00:00 12,8 8,5 10 5 15 8 NNW 1008,5 - 0,0
17.05.2019 17:00:00 13,0 8,5 11 6 21 11 NNW 1008,9 15 0,0
17.05.2019 16:00:00 13,9 9,7 13 7 21 12 N 1009,1 - 0,0
17.05.2019 15:00:00 13,2 9,1 15 8 29 16 N 1009,2 - 0,0
17.05.2019 14:00:00 13,3 8,6 23 12 34 19 N 1009,4 - 0,0
17.05.2019 13:00:00 12,7 8,8 24 13 33 18 N 1009,3 - 0,0
17.05.2019 12:00:00 13,1 9,2 24 13 35 19 NNO 1009,4 - 0,0
17.05.2019 11:00:00 12,3 8,8 26 14 39 21 NNO 1009,4 12 0,0
17.05.2019 10:00:00 12,0 9,4 28 15 42 23 NO 1009,3 - 0,0
17.05.2019 09:00:00 11,5 9,1 29 16 42 23 NO 1009,1 - 0,0
17.05.2019 08:00:00 11,2 9,3 29 16 45 24 NO 1009,3 14 0,0
17.05.2019 07:00:00 11,1 8,5 32 18 44 24 NO 1009,0 - 0,0
17.05.2019 06:00:00 11,2 8,1 31 17 40 22 NO 1008,9 - 0,0
17.05.2019 05:00:00 11,4 8,6 27 15 37 20 NNO 1009,1 - 0,0
17.05.2019 04:00:00 11,5 9,2 24 13 35 19 NNO 1009,4 - 0,0
17.05.2019 03:00:00 11,5 9,6 19 11 31 17 NO 1009,7 - 0,0
17.05.2019 02:00:00 11,6 10,3 19 11 26 14 NNO 1010,2 12 0,0
17.05.2019 01:00:00 11,4 10,3 18 10 26 14 NO 1010,6 - 0,0
17.05.2019 00:00:00 11,5 10,2 18 10 27 15 NO 1011,0 - 0,0
16.05.2019 23:00:00 11,5 9,7 22 12 37 20 ONO 1011,4 18 0,0
16.05.2019 22:00:00 11,6 9,7 25 13 36 20 ONO 1011,4 - 0,0
16.05.2019 21:00:00 11,9 9,3 28 15 46 25 ONO 1011,4 - 0,0
16.05.2019 20:00:00 12,4 8,7 35 19 51 27 ONO 1011,4 15 0,0
16.05.2019 19:00:00 12,8 8,3 40 22 56 30 ONO 1011,4 - 0,0
16.05.2019 18:00:00 13,4 7,8 37 20 51 28 ONO 1011,4 - 0,0
16.05.2019 17:00:00 14,4 9,8 28 15 37 20 NO 1012,1 18 0,0
16.05.2019 16:00:00 14,2 11,7 16 9 24 13 NNO 1012,9 - 0,0
16.05.2019 15:00:00 15,4 11,4 14 7 26 14 NO 1013,6 - 0,0
16.05.2019 14:00:00 14,4 11,2 17 9 25 14 NO 1014,2 15 0,0
16.05.2019 13:00:00 16,0 10,3 14 7 21 11 ONO 1014,5 - 0,0
16.05.2019 12:00:00 17,0 9,9 18 10 23 12 O 1014,6 - 0,0
16.05.2019 11:00:00 13,5 9,3 22 12 26 14 O 1015,0 18 0,0
16.05.2019 10:00:00 12,5 9,1 22 12 27 14 O 1015,3 - 0,0
16.05.2019 09:00:00 12,1 8,8 26 14 29 16 O 1015,5 - 0,0
16.05.2019 08:00:00 12,4 8,7 16 8 26 14 OZO 1015,9 20 0,0
16.05.2019 07:00:00 12,5 8,8 19 11 35 19 ZO 1015,8 - 0,0
16.05.2019 06:00:00 12,5 9,0 22 12 29 16 ZO 1016,0 - 0,0
16.05.2019 05:00:00 12,3 9,5 23 12 29 16 OZO 1016,2 18 0,0
16.05.2019 04:00:00 12,1 9,7 22 12 28 15 OZO 1016,7 - 0,0
16.05.2019 03:00:00 12,3 9,3 18 10 29 15 OZO 1017,4 - 0,0
16.05.2019 02:00:00 12,5 9,0 18 10 26 14 OZO 1017,8 - 0,0
16.05.2019 01:00:00 12,7 9,0 19 10 29 16 OZO 1018,4 - 0,0
16.05.2019 00:00:00 12,4 9,8 21 11 40 21 OZO 1018,6 - 0,0
15.05.2019 23:00:00 12,5 10,0 30 16 35 19 O 1018,8 18 0,0
15.05.2019 22:00:00 12,8 10,2 31 17 45 24 O 1018,7 - 0,0
15.05.2019 21:00:00 13,1 10,1 36 19 50 27 ONO 1018,6 - 0,0
15.05.2019 20:00:00 14,0 9,6 37 20 50 27 ONO 1018,7 - 0,0
15.05.2019 19:00:00 14,5 9,3 35 19 53 28 ONO 1019,3 - 0,0
15.05.2019 18:00:00 14,1 9,7 35 19 46 25 ONO 1019,7 - 0,0
15.05.2019 17:00:00 14,8 9,8 28 15 39 21 NO 1020,2 18 0,0
15.05.2019 16:00:00 15,6 11,0 23 12 37 20 NO 1020,9 - 0,0
15.05.2019 15:00:00 15,6 10,8 20 11 34 19 NO 1021,5 - 0,0
15.05.2019 14:00:00 15,6 11,2 18 10 29 15 NO 1021,7 18 0,0
15.05.2019 13:00:00 16,7 8,9 19 11 37 20 OZO 1021,8 - 0,0
15.05.2019 12:00:00 14,8 7,6 29 16 36 20 OZO 1022,0 - 0,0
15.05.2019 11:00:00 15,0 8,9 25 14 30 16 O 1022,6 18 0,0
15.05.2019 10:00:00 13,2 8,7 25 13 34 18 O 1022,9 - 0,0
15.05.2019 09:00:00 11,6 7,7 29 16 36 19 O 1022,7 - 0,0
15.05.2019 08:00:00 10,4 7,1 30 16 38 20 O 1022,5 - 0,0
15.05.2019 07:00:00 9,9 7,3 28 15 31 17 O 1022,2 - 0,0
15.05.2019 06:00:00 10,1 7,9 28 15 35 19 O 1022,2 - 0,0
15.05.2019 05:00:00 10,5 8,4 29 15 35 19 O 1022,4 - 0,0
15.05.2019 04:00:00 11,0 8,6 24 13 35 19 ONO 1023,0 - 0,0
15.05.2019 03:00:00 11,3 8,5 27 14 40 22 O 1023,4 - 0,0
15.05.2019 02:00:00 11,5 8,2 27 15 41 22 O 1023,9 18 0,0
15.05.2019 01:00:00 11,7 8,4 29 16 42 23 O 1024,0 - 0,0
15.05.2019 00:00:00 12,2 9,0 37 20 56 31 O 1023,7 - 0,0

tt = temperatuur
td = dauwpunt
ff = windsnelheid
fx = windstoten
dd = windrichting
ppp = luchtdruk
vv = zicht
rr = neerslag

Weerstations in de omgeving